Flag for Germany Weather past 2 weeks in Mühlhausen/Thüringen, Thuringia, Germany

Now
50 °F

Passing clouds.


Feels Like: 48 °F
Forecast: 50 / 65 °F
Wind: 5 mph from Southwest

Location: Erfurt-Bindersleben

Current Time: Apr 25, 2015 at 3:06:07 AM

Latest Report: Apr 25, 2015 at 1:00 AM


Visibility: 31 mi

Pressure: 29.89 "Hg

Humidity: 54%

Dew point: 34 °F

Location of Mühlhausen/ThüringenLocation

Historic Weather in Mühlhausen/Thüringen — Graph

°F

Mühlhausen/Thüringen temperature yesterday

Maximum temperature yesterday: 66 °F (at 5:00 PM)
Minimum temperature yesterday: 37 °F (at 5:00 AM)
Average temperature yesterday: 53 °F

Past Weeks' High & Low Weather Summary

 TemperatureHumidityPressure
High72 °F (Apr 15, 4:00 PM)100% (Apr 23, 5:00 AM)30.47 "Hg (Apr 23, 5:00 AM)
Low29 °F (Apr 19, 6:00 AM)23% (Apr 21, 7:00 PM)29.86 "Hg (Apr 24, 7:00 PM)
Average50 °F61%30.19 "Hg
* Reported Apr 10 1:00 AM — Apr 25 1:00 AM, Mühlhausen/Thüringen, Weather by CustomWeather, © 2015

Note: Actual official high and low records may vary slightly from our data, if they occured in-between our weather recording intervals... More about our weather records

Advertising

Mühlhausen/Thüringen weather history for previous 24 hours

 ConditionsComfort  
Time TempWeatherWind HumidityBarometerVisibility
1:00 AM
Sat, Apr 25
50 °FPassing clouds.5 mph54%29.89 "Hg31 mi
12:00 AM52 °FPassing clouds.6 mph51%29.88 "Hg31 mi
11:00 PM
Fri, Apr 24
53 °FPassing clouds.6 mph49%29.88 "Hg31 mi
10:00 PM56 °FPassing clouds.6 mph44%29.88 "Hg31 mi
9:00 PM58 °FPassing clouds.6 mph41%29.88 "Hg31 mi
8:00 PM60 °FPartly sunny.5 mph40%29.87 "Hg47 mi
7:00 PM64 °FScattered clouds.5 mph36%29.86 "Hg37 mi
6:00 PM65 °FScattered clouds.6 mph32%29.87 "Hg37 mi
5:00 PM66 °FScattered clouds.6 mph32%29.87 "Hg31 mi
4:00 PM65 °FScattered clouds.6 mph34%29.89 "Hg31 mi
3:00 PM65 °FScattered clouds.7 mph36%29.90 "Hg31 mi
2:00 PM64 °FScattered clouds.7 mph36%29.92 "Hg25 mi
1:00 PM63 °FPassing clouds.7 mph40%29.94 "Hg25 mi
12:00 PM61 °FPassing clouds.8 mph42%29.96 "Hg25 mi
11:00 AM60 °FSunny.7 mph43%29.97 "Hg25 mi
10:00 AM56 °FSunny.5 mph55%29.98 "Hg25 mi
9:00 AM50 °FSunny.3 mph65%30.01 "Hg28 mi
8:00 AM45 °FSunny.5 mph76%30.01 "Hg28 mi
7:00 AM38 °FSunny.3 mph85%30.02 "Hg25 mi
6:00 AM39 °FClear.5 mph79%30.02 "Hg19 mi
5:00 AM37 °FClear.5 mph85%30.02 "Hg19 mi
4:00 AM40 °FClear.5 mph83%30.02 "Hg19 mi
3:00 AM41 °FClear.5 mph81%30.02 "Hg19 mi
Weather by CustomWeather, © 2015

See weather overviewHow to use our weather pages